HELLAS-SAT 4 & SGS-1

Last updated on Wed Jul 02 2025 00:02:47 GMT+0000 (Coordinated Universal Time)

1 44034U 19007A 25182.00392348 .00000154 00000+0 00000+0 0 9997 2 44034 0.0684 130.1664 0005970 10.3647 179.1894 1.00272674 23832
UTC large
Height (km)
Speed (km/s)
/
Latitude / Longitude
Inclination (degrees)
Orbital Period (minutes)
Azimuth
Elevation
Range (km)
Doppler Factor

Next 0 passes for location: London (51.5072 / 0.1276)

Sorry there are no passes over London.